267  
ASUS44 KMEG 201710  
RWRMEG  
MEMPHIS CWA HOURLY WEATHER ROUNDUP  
NATIONAL WEATHER SERVICE MEMPHIS TN  
1200 PM CDT SAT OCT 20 2018  
   
..WEST TENNESSEE
 
 
 
CITY SKY/WX TMP DP RH WIND PRES REMARKS
 
MEMPHIS INTL PTSUNNY 62 55 77 N6 30.17F  
NWS MEMPHIS N/A 60 N/A N/A MISG N/A  
JACKSON FAIR 61 53 75 NW8 30.15F  
COVINGTON MOSUNNY 63 54 72 N9 30.17S  
BOLIVAR CLOUDY 57 54 88 NW6 30.16S  
LEXINGTON PTSUNNY 59 52 77 VRB6 30.13F  
SELMER CLOUDY 57 54 88 N8 30.14S  
DYERSBURG FAIR 62 54 74 W7 30.17F  
UNION CITY MOSUNNY 63 52 67 NW12 30.14S  
PARIS MOSUNNY 61 52 72 W9 30.13F  
HUNTINGDON MOSUNNY 61 54 77 W8G15 30.13S  
 
   
..EASTERN ARKANSAS
 
 
 
CITY SKY/WX TMP DP RH WIND PRES REMARKS
 
JONESBORO FAIR 64 55 72 NW10 30.18F  
WEST MEMPHIS FAIR 66 57 72 N6 30.17S  
BATESVILLE MOSUNNY 64 49 57 NW8 30.22F  
NEWPORT FAIR 65 53 65 N9 30.20F  
WALNUT RIDGE FAIR 65 49 56 NW15 30.19F  
BLYTHEVILLE FAIR 64 53 67 VRB6 30.17F  
SEARCY FAIR 67 53 61 N8 30.21F  
STUTTGART FAIR 64 55 72 N12 30.21S  
PINE BLUFF CLOUDY 63 54 72 N9 30.21S  
MONTICELLO CLOUDY 62 56 80 VRB5 30.20S  
 
   
..NORTH MISSISSIPPI
 
 
 
CITY SKY/WX TMP DP RH WIND PRES REMARKS
 
TUPELO CLOUDY 61 53 75 NW7 30.14F  
OXFORD CLOUDY 61 54 77 VRB5 30.17F  
BATESVILLE CLOUDY 61 57 88 NW8 30.17S  
OLIVE BRANCH CLOUDY 55 55 100 NW6 30.17S  
TUNICA N/A 59 54 82 N8G16 30.20S  
CLARKSDALE CLOUDY 63 61 94 N9 30.19S  
CORINTH CLOUDY 61 54 77 NW8 30.14S  
GREENWOOD CLOUDY 60 56 86 N9 30.17S  
COLUMBUS CLOUDY 59 57 94 N9 30.12F  
STARKVILLE CLOUDY 61 59 94 NW6 30.14F  
GOLDEN TRIANGL CLOUDY 61 59 93 NW10 30.14R  
 
   
..SOUTHEAST MISSOURI
 
 
 
CITY SKY/WX TMP DP RH WIND PRES REMARKS
 
KENNETT FAIR 66 52 59 NW9 30.15F  
MALDEN FAIR 64 50 59 NW10 30.18S  
WEST PLAINS SUNNY 64 39 39 NW9 30.23S  
POPLAR BLUFF FAIR 66 42 41 NW10 30.17F  
CAPE GIRARDEAU FAIR 64 40 41 N13G22 30.13F  
 
   
..NORTHWEST ALABAMA
 
 
 
CITY SKY/WX TMP DP RH WIND PRES REMARKS
 
MUSCLE SHOALS CLOUDY 61 54 77 VRB6 30.12F  
 
   
..MIDDLE TENNESSEE
 
 
 
CITY SKY/WX TMP DP RH WIND PRES REMARKS
 
NASHVILLE PTSUNNY 58 53 84 SW6 30.10F  
CLARKSVILLE FAIR 62 49 62 W8 30.09F  
DICKSON PTSUNNY 59 52 77 W6G12 30.10S  
COLUMBIA CLOUDY 55 55 100 NW6 30.10F  
LAWRENCEBURG CLOUDY 57 54 88 NW9 30.11S  
LEWISBURG CLOUDY 57 54 88 N7 30.10F  
 
   
..WESTERN KENTUCKY
 
 
 
CITY SKY/WX TMP DP RH WIND PRES REMARKS
 
PADUCAH FAIR 65 43 44 W12G22 30.11F  
FORT CAMPBELL FAIR 61 50 65 W8 30.08F  
 
   
..CENTRAL ARKANSAS
 
 
 
CITY SKY/WX TMP DP RH WIND PRES REMARKS
 
LITTLE ROCK PTSUNNY 63 56 78 N8 30.23S  
 
SKY/WX REPORTED AS FAIR MEANS FEW OR NO CLOUDS BELOW  
12 THOUSAND FEET.  
 
 
 
CLICK HERE TO GO TO PREVIOUS BULLETINS.

The Nexlab TN Page
The Nexlab MS Page
The Nexlab AR Page Main Text Page